Content
SEND FEEDBACK

Daily
Averages
Monthly
Summary
Saudi Arabia

TURAYF, SAUDI ARABIA


Home > Middle East > Saudi Arabia
Elevation: 852 meters     Latitude: 31 40N     Longitude: 038 43E

WEATHER
 
SELECT A DAY
Number of Records: 175,463;   Date Range: 7/1/96 - 10/24/14
 
SHARE

PRINT THIS DATA

[ ← Previous Day ]
WEATHER ALMANAC - 31 JANUARY, 2013
[ Next Day → ]
[ °F ]   °C
Weather ElementAverageHighLow
Temperature6.8 °C10 °C (2:00 pm)4 °C (7:00 am)
Dewpoint4.4 °C6.1 °C (12:00 pm)1 °C (4:00 pm)
Humidity84.5 %100 % (8:00 am)54 % (4:00 pm)
Barometer1006.1 hPa1008.1 hPa (9:00 pm)1004.1 hPa (3:00 pm)
Wind Speed20.8 km/h33.3 km/h (3:00 pm)
Weather ElementAverage
Visibility9.8 km
Wind DirectionWSW (240.3 °)

Weather ElementTotal
Precipitation---
Heating Degree Days11.3 (Base 18.3)
Averaged from 30 records on 31 January, 2013
WEATHER CONDITIONS BREAKOUT
WIND DIRECTION BREAKOUT
WEATHER BY HOUR - 31 JANUARY, 2013
[ °F ]   °C
Local TimeTemperatureDewpointHumidityBarometerVisibilityWind DirectionWind SpeedGust SpeedPrecipitationEventsConditions
12:00 AM8 °C6 °C87 %1007.1 hPa10 kmSE (130°)14.8 km/hMostly Cloudy
1:00 AM7 °C6 °C93 %1007.1 hPa9 kmWest (260°)18.5 km/hRainRain
2:00 AM7 °C6 °C93 %1007.1 hPa10 kmWest (260°)7.4 km/hMostly Cloudy
3:00 AM6.1 °C5 °C90 %9.7 kmWest (260°)11.1 km/h
3:00 AM6 °C5 °C93 %1007.1 hPa10 kmWest (260°)11.1 km/hMostly Cloudy
4:00 AM6 °C5 °C93 %1006.1 hPa10 kmWest (270°)18.5 km/hMostly Cloudy
5:00 AM6 °C5 °C93 %1006.1 hPa10 kmWest (260°)11.1 km/hMostly Cloudy
6:00 AM5 °C4 °C93 %1006.1 hPa10 kmWSW (240°)11.1 km/hMostly Cloudy
6:00 AM5 °C3.9 °C91 %9.7 kmWSW (240°)11.1 km/hPartly Cloudy
7:00 AM4 °C3 °C93 %1006.1 hPa8 kmSSW (200°)11.1 km/hScattered Clouds
8:00 AM4 °C4 °C100 %1006.1 hPa9 kmSSW (210°)14.8 km/hScattered Clouds
9:00 AM5 °C5 °C100 %9.7 kmSSW (210°)14.8 km/hMist
9:00 AM5 °C5 °C100 %1006.1 hPa9 kmSSW (210°)14.8 km/h
10:00 AM6 °C4 °C87 %1006.1 hPaSSW (210°)25.9 km/hClear
11:00 AM8 °C6 °C87 %1007.1 hPa10 kmSW (230°)24.1 km/hMostly Cloudy
12:00 PM8 °C6 °C87 %1006.1 hPa10 kmSW (220°)29.6 km/hMostly Cloudy
12:00 PM7.8 °C6.1 °C84 %9.7 kmSW (220°)29.6 km/hPartly Cloudy
1:00 PM8 °C5 °C81 %1005.1 hPa10 kmWSW (240°)22.2 km/hScattered Clouds
2:00 PM10 °C4 °C66 %1005.1 hPa10 kmWSW (240°)22.2 km/hScattered Clouds
3:00 PM10 °C3.9 °C56 %9.7 kmWSW (240°)33.3 km/hPartly Cloudy
3:00 PM10 °C4 °C66 %1004.1 hPa10 kmWSW (240°)33.3 km/hScattered Clouds
4:00 PM10 °C1 °C54 %1004.1 hPa10 kmWSW (240°)29.6 km/hScattered Clouds
5:00 PM9 °C4 °C71 %1005.1 hPa10 kmWest (270°)29.6 km/hScattered Clouds
6:00 PM7 °C4 °C81 %1005.1 hPa10 kmWest (270°)29.6 km/hScattered Clouds
6:00 PM7.2 °C3.9 °C73 %9.7 kmWest (270°)29.6 km/hPartly Cloudy
7:00 PM6 °C3 °C81 %1005.1 hPa10 kmWest (270°)27.8 km/hScattered Clouds
8:00 PM6 °C3 °C81 %1006.1 hPa10 kmWest (260°)18.5 km/hScattered Clouds
9:00 PM6 °C4 °C87 %1008.1 hPa10 kmWest (260°)24.1 km/hScattered Clouds
10:00 PM6 °C4 °C87 %1008.1 hPa10 kmWest (260°)22.2 km/hScattered Clouds
11:00 PM6 °C4 °C87 %1008.1 hPa10 kmWest (260°)22.2 km/hScattered Clouds
Hourly data recorded from OETR, located 0 kilometers away from Turayf, Saudi Arabia







STORIES FROM OUR PARTNERS